FW6726 Weather Reports


Display with metric or nautical units.
time (UTC)temp
F
wind
direction
speed
MPH
gust
MPH
rain 1hr
in
rain 24hr
in
rain mn
in
humidity
%
barometer
mb
20260504050732 59 276 8.0 11.0 0.00 0.04 0.04 59 1016.7
20260504050232 59 298 6.0 10.0 0.00 0.04 0.04 60 1016.5
20260504045730 59 298 5.0 12.0 0.00 0.04 0.04 60 1016.8
20260504045232 59 283 8.0 13.0 0.00 0.04 0.04 60 1016.6
20260504044731 59 299 6.0 13.0 0.00 0.04 0.04 60 1016.7
20260504044232 59 282 9.0 18.0 0.00 0.04 0.04 60 1016.8
20260504043732 59 292 10.0 18.0 0.00 0.04 0.04 60 1016.8
20260504043500 59 281 14.0 17.0 0.00 0.04 0.04 61 1016.5
20260504042731 59 288 11.0 17.0 0.00 0.04 0.04 62 1016.5
20260504042232 59 300 12.0 17.0 0.00 0.04 0.04 62 1016.4
20260504041728 58 278 12.0 17.0 0.00 0.04 0.04 64 1016.2
20260504041228 58 286 10.0 16.0 0.00 0.04 0.04 64 1016.1
20260504040727 58 317 9.0 15.0 0.00 0.04 0.04 65 1016.0
20260504040227 58 292 9.0 15.0 0.00 0.04 0.04 66 1016.1
20260504035727 58 281 12.0 19.0 0.00 0.04 0.04 67 1016.0
20260504035226 58 259 13.0 19.0 0.00 0.04 0.04 67 1016.1
20260504034944 58 310 12.0 17.0 0.00 0.04 0.04 67 1015.9
20260504034226 58 278 13.0 17.0 0.00 0.04 0.04 67 1015.7
20260504034208 58 299 11.0 15.0 0.00 0.04 0.04 68 1015.6
20260504033227 58 282 9.0 16.0 0.00 0.04 0.04 68 1015.7
20260504032727 58 289 10.0 19.0 0.00 0.04 0.04 67 1015.8
20260504032450 58 278 14.0 19.0 0.00 0.04 0.04 67 1015.8
20260504031726 58 257 10.0 19.0 0.00 0.04 0.04 67 1015.8
20260504031225 59 257 10.0 15.0 0.00 0.04 0.04 68 1015.9
20260504030726 59 285 10.0 19.0 0.00 0.04 0.04 69 1015.7
20260504030225 59 268 12.0 20.0 0.00 0.04 0.04 68 1015.7
20260504025724 59 286 12.0 20.0 0.00 0.04 0.04 68 1015.9
20260504025225 59 255 8.0 13.0 0.00 0.04 0.04 69 1015.8
20260504024724 59 276 7.0 13.0 0.00 0.04 0.04 68 1015.8
20260504024225 59 259 8.0 14.0 0.00 0.04 0.04 68 1015.7
20260504023724 59 269 9.0 18.0 0.00 0.04 0.04 68 1015.7
20260504023224 60 264 11.0 18.0 0.00 0.04 0.04 67 1015.6
20260504022725 60 257 11.0 17.0 0.00 0.04 0.04 67 1015.6
20260504022442 60 251 8.0 15.0 0.00 0.04 0.04 67 1015.7
20260504021723 60 241 9.0 15.0 0.00 0.04 0.04 67 1015.8
20260504021226 60 252 9.0 16.0 0.00 0.04 0.04 66 1015.8
20260504020725 60 233 7.0 16.0 0.00 0.04 0.04 66 1015.7
20260504020224 60 259 8.0 13.0 0.00 0.04 0.04 66 1015.5
20260504015945 60 265 6.0 13.0 0.00 0.04 0.04 66 1015.5
20260504015224 60 272 7.0 16.0 0.00 0.04 0.04 66 1015.7
20260504014725 60 299 9.0 16.0 0.00 0.04 0.04 66 1015.6
20260504014224 60 262 6.0 12.0 0.00 0.04 0.04 66 1015.8
20260504013724 60 245 7.0 11.0 0.00 0.04 0.04 67 1015.8
20260504013224 60 237 6.0 10.0 0.00 0.04 0.04 67 1015.6
20260504012724 60 219 5.0 6.0 0.00 0.04 0.04 67 1015.5
20260504012223 60 243 4.0 6.0 0.00 0.04 0.04 68 1015.2
20260504011947 60 251 5.0 7.0 0.00 0.04 0.04 67 1015.5
20260504011223 60 244 4.0 9.0 0.00 0.04 0.04 68 1015.6
20260504010725 60 206 4.0 10.0 0.00 0.04 0.04 67 1015.5
20260504010223 60 195 4.0 10.0 0.00 0.04 0.04 67 1015.7
20260504005722 60 223 5.0 7.0 0.00 0.04 0.04 68 1015.7
20260504005222 60 240 5.0 7.0 0.00 0.04 0.04 69 1015.7
20260504004721 60 196 5.0 7.0 0.00 0.04 0.04 70 1015.7
20260504004221 60 217 6.0 7.0 0.00 0.04 0.04 70 1015.7
20260504003722 60 179 6.0 7.0 0.00 0.04 0.04 70 1015.8
20260504003221 60 213 4.0 9.0 0.00 0.04 0.04 71 1015.6
20260504002721 60 207 6.0 9.0 0.00 0.04 0.04 70 1015.7
20260504002222 60 196 6.0 11.0 0.00 0.04 0.04 70 1015.7
20260504001945 60 223 8.0 11.0 0.00 0.04 0.04 70 1015.8
20260504001221 60 247 6.0 11.0 0.00 0.04 0.04 71 1015.9
20260504000721 60 217 6.0 11.0 0.00 0.04 0.04 71 1015.7
20260504000708 60 212 8.0 11.0 0.00 0.04 0.04 71 1015.8
20260503235944 60 219 7.0 12.0 0.00 0.04 0.04 71 1015.9
20260503235220 60 200 8.0 12.0 0.00 0.04 0.04 70 1015.8
20260503234721 61 189 8.0 12.0 0.00 0.04 0.04 70 1015.7
20260503234220 61 179 6.0 10.0 0.00 0.04 0.04 68 1015.7
20260503233720 62 165 4.0 6.0 0.00 0.04 0.04 67 1015.8
20260503233220 62 164 5.0 7.0 0.00 0.04 0.04 67 1015.7
20260503232720 63 148 5.0 7.0 0.00 0.04 0.04 68 1015.6
20260503232220 63 179 2.0 7.0 0.00 0.04 0.04 68 1015.5
20260503231946 63 185 4.0 7.0 0.00 0.04 0.04 67 1015.5
20260503231221 64 171 5.0 7.0 0.00 0.04 0.04 66 1015.7
20260503230721 64 162 5.0 7.0 0.00 0.04 0.04 68 1015.7
20260503230443 64 142 2.0 7.0 0.00 0.04 0.04 70 1015.6
20260503225720 63 157 3.0 7.0 0.00 0.04 0.04 69 1015.7
20260503225220 63 173 4.0 10.0 0.00 0.04 0.04 69 1015.8
20260503224720 63 189 5.0 10.0 0.00 0.04 0.04 69 1015.8
20260503224219 63 188 5.0 7.0 0.00 0.04 0.04 68 1015.8
20260503223720 63 147 5.0 7.0 0.00 0.04 0.04 67 1016.0
20260503223426 64 171 4.0 6.0 0.00 0.04 0.04 66 1016.0
20260503223416 63 137 3.0 7.0 0.00 0.04 0.04 66 1016.0
20260503222221 64 159 4.0 7.0 0.00 0.04 0.04 66 1016.1
20260503221719 64 159 4.0 7.0 0.00 0.04 0.04 65 1016.3
20260503221447 65 138 2.0 9.0 0.00 0.04 0.04 67 1016.3
20260503220941 65 140 3.0 9.0 0.00 0.04 0.04 65 1016.4
20260503220220 65 171 4.0 7.0 0.00 0.04 0.04 67 1016.4
20260503215719 65 147 2.0 7.0 0.00 0.04 0.04 67 1016.4
20260503215220 65 162 4.0 6.0 0.00 0.04 0.04 67 1016.5
20260503214719 66 140 2.0 6.0 0.00 0.04 0.04 66 1016.5
20260503214220 66 130 3.0 6.0 0.00 0.04 0.04 67 1016.5
20260503213719 67 172 3.0 5.0 0.00 0.04 0.04 67 1016.4
20260503213218 67 141 3.0 7.0 0.00 0.04 0.04 67 1016.5
20260503212937 68 124 4.0 7.0 0.00 0.04 0.04 67 1016.4
20260503212218 68 94 3.0 6.0 0.00 0.04 0.04 68 1016.3
20260503211717 68 99 2.0 6.0 0.00 0.04 0.04 69 1016.3
20260503211216 68 116 4.0 6.0 0.00 0.04 0.04 69 1016.3
20260503210717 67 104 2.0 9.0 0.00 0.04 0.04 69 1016.3
20260503210216 67 97 4.0 9.0 0.00 0.04 0.04 71 1016.4
20260503205718 66 106 3.0 7.0 0.00 0.04 0.04 73 1016.5
20260503205438 66 134 3.0 9.0 0.00 0.04 0.04 75 1016.5
20260503204718 65 127 2.0 9.0 0.00 0.04 0.04 75 1016.6
20260503204441 64 120 2.0 9.0 0.00 0.04 0.04 77 1016.6
20260503203718 63 130 2.0 5.0 0.00 0.04 0.04 76 1016.8
20260503203217 62 100 2.0 4.0 0.00 0.04 0.04 78 1016.7
20260503202716 62 114 2.0 3.0 0.00 0.04 0.04 76 1016.7
20260503202215 62 103 0.0 5.0 0.00 0.04 0.04 77 1016.7
20260503201715 62 103 2.0 5.0 0.00 0.04 0.04 76 1016.7
20260503201215 62 109 1.0 3.0 0.00 0.04 0.04 77 1016.7
20260503200715 62 114 1.0 4.0 0.00 0.04 0.04 78 1016.7
20260503200436 62 107 1.0 6.0 0.00 0.04 0.04 78 1016.7
20260503195715 62 97 2.0 6.0 0.00 0.04 0.04 78 1016.8
20260503195215 62 111 1.0 4.0 0.00 0.04 0.04 78 1016.8
20260503194714 62 120 1.0 4.0 0.00 0.04 0.04 78 1016.7
20260503194438 62 131 1.0 4.0 0.00 0.04 0.04 78 1016.7
20260503193714 62 92 2.0 6.0 0.00 0.04 0.04 79 1016.8
20260503193214 62 138 3.0 6.0 0.00 0.04 0.04 79 1016.9
20260503192715 62 113 3.0 4.0 0.00 0.04 0.04 80 1016.9
20260503192214 62 142 0.0 5.0 0.00 0.04 0.04 81 1017.0
20260503191934 61 152 1.0 5.0 0.00 0.04 0.04 82 1016.9
20260503191214 60 125 1.0 3.0 0.00 0.04 0.04 81 1016.9
20260503190714 60 82 0.0 5.0 0.00 0.04 0.04 80 1016.8
20260503190214 60 82 4.0 5.0 0.00 0.04 0.04 80 1016.9
20260503185714 60 148 2.0 7.0 0.00 0.04 0.04 80 1017.0
20260503185214 60 176 2.0 9.0 0.00 0.04 0.04 78 1017.0
20260503184715 61 214 4.0 9.0 0.00 0.04 0.04 79 1017.0
20260503184215 62 189 3.0 5.0 0.00 0.04 0.04 79 1017.0
20260503183715 62 93 3.0 9.0 0.00 0.04 0.04 78 1016.9
20260503183212 0 80 7.0 10.0 0.00 0.04 0.04 1016.8
20260503182935 62 80 6.0 10.0 0.00 0.04 0.04 74 1016.7
20260503182211 62 78 6.0 9.0 0.00 0.04 0.04 74 1016.8
20260503181712 63 85 7.0 10.0 0.00 0.04 0.04 77 1016.8
20260503181211 63 89 7.0 10.0 0.00 0.04 0.04 78 1016.8
20260503180711 62 92 3.0 7.0 0.00 0.04 0.04 79 1016.7
20260503180212 62 110 3.0 6.0 0.00 0.04 0.04 78 1016.8
20260503175711 61 94 0.0 5.0 0.00 0.04 0.04 79 1016.7
20260503175212 60 55 2.0 6.0 0.00 0.04 0.04 84 1016.6
20260503174712 60 68 4.0 6.0 0.00 0.04 0.04 84 1016.6
20260503174210 59 49 2.0 4.0 0.00 0.04 0.04 85 1016.8
20260503173710 59 47 2.0 4.0 0.00 0.04 0.04 86 1016.7
20260503173436 58 35 1.0 7.0 0.00 0.04 0.04 87 1016.7
20260503172710 58 31 3.0 9.0 0.00 0.04 0.04 88 1016.6
20260503172211 58 327 5.0 9.0 0.00 0.04 0.04 89 1016.6
20260503171710 57 34 5.0 7.0 0.00 0.04 0.04 90 1016.6
20260503171209 57 47 2.0 6.0 0.00 0.04 0.04 90 1016.6
20260503170709 57 37 4.0 6.0 0.00 0.04 0.04 91 1016.5
20260503170210 57 49 1.0 5.0 0.00 0.04 0.04 92 1016.5
20260503160208 55 45 4.0 6.0 0.01 0.04 0.04 94 1016.1
20260503150708 54 314 2.0 5.0 0.02 0.03 0.03 94 1015.5
20260503150208 54 320 2.0 3.0 0.02 0.03 0.03 94 1015.5
20260503140207 53 306 2.0 4.0 0.01 0.01 0.01 93 1015.2
20260503131205 54 11 1.0 5.0 0.00 0.00 0.00 92 1014.6
20260503130704 54 45 4.0 5.0 0.00 0.00 0.00 92 1014.7
20260503130206 54 56 4.0 7.0 0.00 0.00 0.00 92 1014.6
20260503120158 55 34 5.0 7.0 0.00 0.00 0.00 91 1014.2
20260503110632 55 62 5.0 9.0 0.00 0.00 0.00 91 1014.1
20260503110131 55 38 4.0 10.0 0.00 0.00 0.00 91 1014.3
20260503100132 54 66 0.0 0.0 0.00 0.00 0.00 92 1014.2
20260503081558 55 62 0.0 0.0 0.00 0.00 0.00 89 1014.7
20260503081320 0 62 0.0 2.0 0.00 0.00 0.00 1014.7
20260503080814 55 62 1.0 3.0 0.00 0.00 0.00 89 1014.9
20260503080314 55 62 1.0 3.0 0.00 0.00 0.00 89 1014.8
20260503072819 55 307 4.0 6.0 0.00 0.00 0.00 89 1014.8
20260503072323 55 303 4.0 6.0 0.00 0.00 0.00 89 1014.7
20260503071825 55 324 3.0 6.0 0.00 0.00 0.00 89 1014.7
20260503071055 56 306 3.0 10.0 0.00 0.00 0.00 89 1014.8
20260503070815 56 10 3.0 12.0 0.00 0.00 0.00 89 1014.7
20260503055052 56 310 2.0 5.0 0.00 0.00 0.00 87 1014.1
20260503054812 57 310 2.0 5.0 0.00 0.00 0.00 87 1014.0
20260503054052 57 39 1.0 5.0 0.00 0.00 0.00 87 1014.1
20260503053553 57 41 0.0 7.0 0.00 0.00 0.00 87 1014.0
20260503053052 57 49 3.0 7.0 0.00 0.00 0.00 87 1013.9
20260503052553 57 45 4.0 6.0 0.00 0.00 0.00 88 1013.8